• In Germany
  • List of Countries
  • For 7 days
  • Water Temperature
  • Satellite Maps
  • Weather Map
  • Weather Widgets
  • user-avatar
    Login

    Hourly Weather New Britain

    Today, 26 September, Tuesday

    Time Temperature Precipitation Wind Pressure Humidity
    00:00 +19°C° 0 mm 0 mps 759 mmHg 96%
    01:00 +19°C° 0 mm 0 mps 759 mmHg 96%
    02:00 +19°C° 0 mm 0 mps 759 mmHg 96%
    03:00 +19°C° 0 mm 0 mps 759 mmHg 96%
    04:00 +19°C° 0 mm 0 mps 759 mmHg 96%
    05:00 +19°C° 0 mm 0 mps 759 mmHg 95%
    06:00 +20°C° 0 mm 0 mps 759 mmHg 93%
    07:00 +20°C° 0 mm 0 mps 760 mmHg 92%
    08:00 +23°C° 0 mm 0 mps 759 mmHg 81%
    09:00 +26°C° 0 mm 0 mps 759 mmHg 71%
    10:00 +29°C° 0 mm 0 mps 759 mmHg 60%
    11:00 +30°C° 0 mm 0 mps 759 mmHg 56%
    12:00 +31°C° 0 mm 0 mps 759 mmHg 52%
    13:00 +32°C° 0 mm 0 mps 758 mmHg 47%
    14:00 +33°C° 0 mm 1 mps 758 mmHg 49%
    15:00 +32°C° 0 mm 1 mps 758 mmHg 52%
    16:00 +31°C° 0 mm 1 mps 757 mmHg 54%
    17:00 +29°C° 0 mm 1 mps 757 mmHg 63%
    18:00 +27°C° 0 mm 1 mps 757 mmHg 72%
    19:00 +24°C° 0 mm 1 mps 758 mmHg 81%
    20:00 +23°C° 0 mm 1 mps 758 mmHg 85%
    21:00 +23°C° 0 mm 1 mps 758 mmHg 88%
    22:00 +20°C° 0 mm 0 mps 758 mmHg 92%
    23:00 +19°C° 0 mm 0 mps 757 mmHg 93%

    Tomorrow, 27 September, Wednesday

    Time Temperature Precipitation Wind Pressure Humidity
    00:00 +19°C° 0 mm 0 mps 757 mmHg 94%
    01:00 +19°C° 0 mm 0 mps 757 mmHg 95%
    02:00 +19°C° 0 mm 0 mps 757 mmHg 95%
    03:00 +19°C° 0 mm 0 mps 757 mmHg 95%
    04:00 +19°C° 0 mm 0 mps 756 mmHg 95%
    05:00 +19°C° 0 mm 0 mps 756 mmHg 92%
    06:00 +22°C° 0 mm 1 mps 756 mmHg 89%
    07:00 +23°C° 0 mm 1 mps 756 mmHg 87%
    08:00 +25°C° 0 mm 1 mps 756 mmHg 77%
    09:00 +28°C° 0 mm 1 mps 756 mmHg 68%
    10:00 +31°C° 0 mm 1 mps 756 mmHg 58%
    11:00 +31°C° 0 mm 2 mps 755 mmHg 57%
    12:00 +32°C° 0 mm 2 mps 755 mmHg 55%
    13:00 +33°C° 0 mm 3 mps 755 mmHg 54%
    14:00 +32°C° 0.2 mm 2 mps 754 mmHg 57%
    15:00 +31°C° 0.2 mm 2 mps 754 mmHg 61%
    16:00 +30°C° 0.2 mm 2 mps 753 mmHg 65%
    17:00 +28°C° 0.2 mm 2 mps 753 mmHg 74%
    18:00 +26°C° 0.2 mm 2 mps 753 mmHg 83%
    19:00 +24°C° 0.2 mm 1 mps 753 mmHg 93%
    20:00 +24°C° 0 mm 1 mps 753 mmHg 94%
    21:00 +23°C° 0 mm 1 mps 753 mmHg 96%
    22:00 +23°C° 0 mm 1 mps 753 mmHg 97%
    23:00 +23°C° 0 mm 1 mps 752 mmHg 97%

    Day after tomorrow, 28 September, Thursday

    Time Temperature Precipitation Wind Pressure Humidity
    00:00 +21°C° 0 mm 0 mps 752 mmHg 98%
    01:00 +20°C° 0 mm 0 mps 752 mmHg 98%
    02:00 +22°C° 0 mm 1 mps 752 mmHg 97%
    03:00 +21°C° 0 mm 2 mps 752 mmHg 96%
    04:00 +21°C° 0 mm 2 mps 752 mmHg 95%
    05:00 +21°C° 0 mm 3 mps 752 mmHg 88%
    06:00 +20°C° 0 mm 4 mps 752 mmHg 81%
    07:00 +20°C° 0 mm 5 mps 752 mmHg 74%
    08:00 +21°C° 0 mm 5 mps 752 mmHg 65%
    09:00 +22°C° 0 mm 5 mps 752 mmHg 56%
    10:00 +23°C° 0 mm 6 mps 752 mmHg 46%
    11:00 +24°C° 0 mm 6 mps 752 mmHg 43%
    12:00 +24°C° 0 mm 6 mps 752 mmHg 40%
    13:00 +26°C° 0 mm 6 mps 751 mmHg 37%
    14:00 +24°C° 0 mm 6 mps 751 mmHg 38%
    15:00 +24°C° 0 mm 6 mps 751 mmHg 39%
    16:00 +23°C° 0 mm 5 mps 751 mmHg 39%
    17:00 +21°C° 0 mm 5 mps 752 mmHg 43%
    18:00 +20°C° 0 mm 4 mps 753 mmHg 47%
    19:00 +18°C° 0 mm 4 mps 754 mmHg 51%
    20:00 +17°C° 0 mm 4 mps 754 mmHg 54%
    21:00 +16°C° 0 mm 3 mps 755 mmHg 57%
    22:00 +14°C° 0 mm 3 mps 755 mmHg 60%
    23:00 +13°C° 0 mm 3 mps 755 mmHg 62%

    29 September, Friday

    Time Temperature Precipitation Wind Pressure Humidity
    00:00 +12°C° 0 mm 3 mps 756 mmHg 64%
    01:00 +11°C° 0 mm 3 mps 756 mmHg 66%
    02:00 +11°C° 0 mm 3 mps 756 mmHg 67%
    03:00 +10°C° 0 mm 3 mps 757 mmHg 68%
    04:00 +10°C° 0 mm 3 mps 757 mmHg 70%
    05:00 +10°C° 0 mm 3 mps 757 mmHg 66%
    06:00 +10°C° 0 mm 3 mps 758 mmHg 63%
    07:00 +10°C° 0 mm 3 mps 758 mmHg 60%
    08:00 +12°C° 0 mm 4 mps 758 mmHg 53%
    09:00 +14°C° 0 mm 4 mps 758 mmHg 45%
    10:00 +17°C° 0 mm 4 mps 758 mmHg 37%
    11:00 +18°C° 0 mm 4 mps 758 mmHg 37%
    12:00 +20°C° 0 mm 4 mps 758 mmHg 36%
    13:00 +21°C° 0 mm 4 mps 757 mmHg 35%
    14:00 +21°C° 0 mm 4 mps 757 mmHg 37%
    15:00 +21°C° 0 mm 3 mps 757 mmHg 39%
    16:00 +21°C° 0 mm 3 mps 757 mmHg 41%
    17:00 +19°C° 0 mm 2 mps 758 mmHg 49%
    18:00 +17°C° 0 mm 2 mps 758 mmHg 57%
    19:00 +15°C° 0 mm 1 mps 759 mmHg 64%
    20:00 +14°C° 0.6 mm 1 mps 759 mmHg 71%
    21:00 +14°C° 0.6 mm 1 mps 759 mmHg 79%
    22:00 +14°C° 0.6 mm 1 mps 759 mmHg 86%
    23:00 +13°C° 1.4 mm 2 mps 760 mmHg 88%

    30 September, Saturday

    Time Temperature Precipitation Wind Pressure Humidity
    00:00 +13°C° 1.4 mm 2 mps 760 mmHg 90%
    01:00 +12°C° 1.4 mm 2 mps 760 mmHg 92%
    02:00 +10°C° 0.7 mm 2 mps 760 mmHg 92%
    03:00 +10°C° 0.7 mm 2 mps 761 mmHg 91%
    04:00 +9°C° 0.7 mm 2 mps 761 mmHg 91%
    05:00 +9°C° 0 mm 2 mps 762 mmHg 90%
    06:00 +9°C° 0 mm 2 mps 762 mmHg 89%
    07:00 +8°C° 0 mm 2 mps 763 mmHg 88%
    08:00 +12°C° 0 mm 2 mps 763 mmHg 75%
    09:00 +13°C° 0 mm 3 mps 764 mmHg 61%
    10:00 +16°C° 0 mm 3 mps 764 mmHg 47%
    11:00 +17°C° 0 mm 3 mps 764 mmHg 43%
    12:00 +18°C° 0 mm 3 mps 764 mmHg 39%
    13:00 +19°C° 0 mm 3 mps 764 mmHg 35%
    14:00 +19°C° 0 mm 2 mps 764 mmHg 35%
    15:00 +19°C° 0 mm 2 mps 764 mmHg 36%
    16:00 +18°C° 0 mm 2 mps 764 mmHg 37%
    17:00 +16°C° 0 mm 2 mps 765 mmHg 43%
    18:00 +14°C° 0 mm 2 mps 765 mmHg 49%
    19:00 +12°C° 0 mm 1 mps 766 mmHg 55%
    20:00 +11°C° 0 mm 1 mps 766 mmHg 58%
    21:00 +11°C° 0 mm 1 mps 767 mmHg 61%
    22:00 +10°C° 0 mm 1 mps 767 mmHg 65%
    23:00 +9°C° 0 mm 1 mps 767 mmHg 67%

    1 October, Sunday

    Time Temperature Precipitation Wind Pressure Humidity
    00:00 +9°C° 0 mm 1 mps 767 mmHg 68%
    01:00 +8°C° 0 mm 1 mps 767 mmHg 70%
    02:00 +8°C° 0 mm 1 mps 768 mmHg 68%
    03:00 +8°C° 0 mm 1 mps 768 mmHg 66%
    04:00 +7°C° 0 mm 1 mps 768 mmHg 64%
    05:00 +8°C° 0 mm 1 mps 768 mmHg 60%
    06:00 +8°C° 0 mm 1 mps 768 mmHg 57%
    07:00 +9°C° 0 mm 1 mps 769 mmHg 54%
    08:00 +12°C° 0 mm 1 mps 769 mmHg 46%
    09:00 +15°C° 0 mm 1 mps 769 mmHg 38%
    10:00 +19°C° 0 mm 1 mps 769 mmHg 31%
    11:00 +20°C° 0 mm 1 mps 768 mmHg 28%
    12:00 +21°C° 0 mm 1 mps 768 mmHg 25%
    13:00 +23°C° 0 mm 1 mps 768 mmHg 23%
    14:00 +22°C° 0 mm 1 mps 767 mmHg 26%
    15:00 +22°C° 0 mm 1 mps 767 mmHg 28%
    16:00 +21°C° 0 mm 1 mps 767 mmHg 31%
    17:00 +19°C° 0 mm 1 mps 767 mmHg 37%
    18:00 +15°C° 0 mm 1 mps 768 mmHg 43%
    19:00 +12°C° 0 mm 1 mps 768 mmHg 49%
    20:00 +12°C° 0 mm 1 mps 768 mmHg 51%
    21:00 +11°C° 0 mm 1 mps 768 mmHg 52%
    22:00 +11°C° 0 mm 1 mps 768 mmHg 54%
    23:00 +10°C° 0 mm 1 mps 769 mmHg 54%
    Show more